| time (UTC) | temp F | wind direction | speed MPH | gust MPH | rain 1hr in | rain 24hr in | rain mn in | humidity % | barometer mb |
| 20260503204519 | 49 | 203 | 1.0 | 6.0 | 0.00 | 0.00 | 0.00 | 83 | 1007.5 |
| 20260503203025 | 49 | 207 | 3.0 | 6.0 | 0.00 | 0.00 | 0.00 | 82 | 1007.7 |
| 20260503201558 | 51 | 190 | 2.0 | 6.0 | 0.00 | 0.00 | 0.00 | 80 | 1007.6 |
| 20260503200056 | 53 | 162 | 2.0 | 6.0 | 0.00 | 0.00 | 0.00 | 76 | 1007.7 |
| 20260503194542 | 56 | 170 | 2.0 | 6.0 | 0.00 | 0.00 | 0.00 | 72 | 1007.8 |
| 20260503193038 | 57 | 194 | 3.0 | 6.0 | 0.00 | 0.00 | 0.00 | 58 | 1008.0 |
| 20260503191517 | 57 | 132 | 3.0 | 5.0 | 0.00 | 0.00 | 0.00 | 56 | 1008.1 |
| 20260503190018 | 58 | 174 | 3.0 | 6.0 | 0.00 | 0.00 | 0.00 | 46 | 1008.2 |
| 20260503184558 | 58 | 150 | 3.0 | 7.0 | 0.00 | 0.00 | 0.00 | 45 | 1008.2 |
| 20260503183058 | 57 | 200 | 3.0 | 7.0 | 0.00 | 0.00 | 0.00 | 49 | 1008.3 |
| 20260503181538 | 57 | 158 | 3.0 | 7.0 | 0.00 | 0.00 | 0.00 | 46 | 1008.3 |
| 20260503180040 | 57 | 143 | 3.0 | 11.0 | 0.00 | 0.00 | 0.00 | 45 | 1008.3 |
| 20260503174520 | 57 | 162 | 3.0 | 6.0 | 0.00 | 0.00 | 0.00 | 42 | 1008.4 |
| 20260503173036 | 58 | 141 | 3.0 | 7.0 | 0.00 | 0.00 | 0.00 | 38 | 1008.4 |
| 20260503171600 | 58 | 198 | 3.0 | 6.0 | 0.00 | 0.00 | 0.00 | 38 | 1008.4 |
| 20260503081552 | 55 | 134 | 0.0 | 1.0 | 0.00 | 0.00 | 0.00 | 35 | 1008.8 |
| 20260503071510 | 56 | 207 | 0.0 | 0.0 | 0.00 | 0.00 | 0.00 | 30 | 1009.3 |
| 20260503054515 | 58 | 190 | 1.0 | 2.0 | 0.00 | 0.00 | 0.00 | 26 | 1009.8 |
| 20260503053013 | 58 | 214 | 0.0 | 2.0 | 0.00 | 0.00 | 0.00 | 26 | 1009.8 |
| 20260503051554 | 58 | 194 | 1.0 | 3.0 | 0.00 | 0.00 | 0.00 | 26 | 1009.8 |
| 20260503050053 | 58 | 163 | 1.0 | 2.0 | 0.00 | 0.00 | 0.00 | 26 | 1009.7 |
| 20260503044535 | 58 | 205 | 1.0 | 2.0 | 0.00 | 0.00 | 0.00 | 26 | 1009.7 |
| 20260503043035 | 58 | 203 | 0.0 | 2.0 | 0.00 | 0.00 | 0.00 | 26 | 1009.5 |
| 20260503041519 | 58 | 198 | 1.0 | 2.0 | 0.00 | 0.00 | 0.00 | 27 | 1009.2 |
| 20260503040017 | 58 | 205 | 1.0 | 2.0 | 0.00 | 0.00 | 0.00 | 27 | 1009.3 |
| 20260503034558 | 57 | 188 | 0.0 | 0.0 | 0.00 | 0.00 | 0.00 | 29 | 1009.2 |
| 20260503033109 | 58 | 188 | 0.0 | 2.0 | 0.00 | 0.00 | 0.00 | 28 | 1008.8 |
| 20260503031546 | 56 | 222 | 0.0 | 0.0 | 0.00 | 0.00 | 0.00 | 30 | 1008.7 |
| 20260503030047 | 57 | 222 | 0.0 | 0.0 | 0.00 | 0.00 | 0.00 | 30 | 1008.7 |
| 20260503024545 | 57 | 222 | 0.0 | 0.0 | 0.00 | 0.00 | 0.00 | 29 | 1008.6 |
| 20260503023056 | 58 | 222 | 0.0 | 0.0 | 0.00 | 0.00 | 0.00 | 29 | 1008.4 |
| 20260503021549 | 58 | 222 | 0.0 | 1.0 | 0.00 | 0.00 | 0.00 | 29 | 1008.2 |
| 20260503020044 | 59 | 218 | 0.0 | 0.0 | 0.00 | 0.00 | 0.00 | 32 | 1008.1 |
| 20260503014542 | 60 | 213 | 0.0 | 1.0 | 0.00 | 0.00 | 0.00 | 37 | 1008.1 |
| 20260503013042 | 60 | 195 | 0.0 | 3.0 | 0.00 | 0.00 | 0.00 | 42 | 1007.9 |
| 20260503011524 | 61 | 188 | 2.0 | 4.0 | 0.00 | 0.00 | 0.00 | 43 | 1007.8 |
| 20260503010031 | 61 | 191 | 2.0 | 5.0 | 0.00 | 0.00 | 0.00 | 41 | 1007.6 |
| 20260503004508 | 61 | 181 | 2.0 | 5.0 | 0.00 | 0.00 | 0.00 | 43 | 1007.4 |
| 20260503003005 | 63 | 233 | 2.0 | 6.0 | 0.00 | 0.00 | 0.00 | 64 | 1007.5 |
| 20260503001548 | 63 | 162 | 2.0 | 5.0 | 0.00 | 0.00 | 0.00 | 49 | 1007.5 |
| 20260503000100 | 64 | 228 | 3.0 | 6.0 | 0.00 | 0.00 | 0.00 | 56 | 1007.4 |
| 20260502234529 | 64 | 219 | 3.0 | 5.0 | 0.00 | 0.00 | 0.00 | 53 | 1007.3 |
| 20260502233026 | 64 | 146 | 2.0 | 6.0 | 0.00 | 0.00 | 0.00 | 50 | 1007.5 |
| 20260502231506 | 64 | 204 | 2.0 | 6.0 | 0.00 | 0.00 | 0.00 | 51 | 1007.6 |
| 20260502230004 | 66 | 198 | 2.0 | 6.0 | 0.00 | 0.00 | 0.00 | 47 | 1007.8 |
| 20260502224601 | 65 | 153 | 2.0 | 7.0 | 0.00 | 0.00 | 0.00 | 47 | 1008.0 |
| 20260502223043 | 65 | 194 | 3.0 | 5.0 | 0.00 | 0.00 | 0.00 | 52 | 1008.3 |
| 20260502221539 | 66 | 192 | 3.0 | 9.0 | 0.00 | 0.00 | 0.00 | 45 | 1008.6 |
| 20260502220020 | 66 | 145 | 3.0 | 6.0 | 0.00 | 0.00 | 0.00 | 46 | 1008.7 |
| 20260502214517 | 67 | 217 | 2.0 | 6.0 | 0.00 | 0.00 | 0.00 | 47 | 1009.1 |
| 20260502213014 | 69 | 193 | 3.0 | 6.0 | 0.00 | 0.00 | 0.00 | 48 | 1009.2 |
| 20260502211511 | 68 | 188 | 2.0 | 6.0 | 0.00 | 0.00 | 0.00 | 43 | 1009.3 |
| 20260502210009 | 68 | 145 | 3.0 | 7.0 | 0.00 | 0.00 | 0.00 | 37 | 1009.4 |